KF4HJW Weather Reports


time (UTC)temp
C
wind
direction
speed
KPH
gust
KPH
rain 1hr
cm
rain 24hr
cm
rain mn
cm
humidity
%
barometer
mb
20260505100801 16 360 0.0 12.9 0.00 0.00 0.00 71 1014.2
20260505100331 16 360 1.6 12.9 0.00 0.00 0.00 71 1014.2
20260505095801 16 360 0.0 9.7 0.00 0.00 0.00 71 1014.1
20260505095301 16 360 0.0 12.9 0.00 0.00 0.00 70 1013.9
20260505094331 16 360 3.2 17.7 0.00 0.00 0.00 70 1013.9
20260505093801 16 360 8.0 16.1 0.00 0.00 0.00 70 1013.9
20260505093301 16 360 0.0 9.7 0.00 0.00 0.00 71 1013.9
20260505092801 17 360 0.0 11.3 0.00 0.00 0.00 70 1013.8
20260505092331 17 360 1.6 11.3 0.00 0.00 0.00 70 1013.7
20260505091801 17 360 8.0 11.3 0.00 0.00 0.00 70 1013.8
20260505091301 17 360 3.2 11.3 0.00 0.00 0.00 70 1013.7
20260505090801 17 360 8.0 11.3 0.00 0.00 0.00 70 1013.7
20260505090301 17 360 6.4 11.3 0.00 0.00 0.00 70 1013.7
20260505085831 17 360 3.2 11.3 0.00 0.00 0.00 69 1013.7
20260505085301 17 360 3.2 14.5 0.00 0.00 0.00 69 1013.5
20260505084801 17 360 8.0 14.5 0.00 0.00 0.00 69 1013.6
20260505083831 17 360 9.7 14.5 0.00 0.00 0.00 68 1013.7
20260505083301 17 360 1.6 9.7 0.00 0.00 0.00 68 1013.6
20260505082331 17 360 1.6 12.9 0.00 0.00 0.00 68 1013.7
20260505081801 17 360 8.0 11.3 0.00 0.00 0.00 68 1013.7
20260505081331 17 360 0.0 11.3 0.00 0.00 0.00 68 1013.6
20260505080801 17 360 3.2 12.9 0.00 0.00 0.00 68 1013.6
20260505080301 17 360 8.0 12.9 0.00 0.00 0.00 67 1013.5
20260505075801 17 360 3.2 14.5 0.00 0.00 0.00 68 1013.4
20260505075301 17 360 8.0 14.5 0.00 0.00 0.00 68 1013.3
20260505074831 17 360 8.0 14.5 0.00 0.00 0.00 68 1013.3
20260505074301 17 360 3.2 14.5 0.00 0.00 0.00 67 1013.2
20260505073801 17 360 3.2 16.1 0.00 0.00 0.00 67 1013.1
20260505072301 17 360 8.0 14.5 0.00 0.00 0.00 67 1013.2
20260505071801 17 360 6.4 16.1 0.00 0.00 0.00 67 1013.2
20260505070801 18 360 9.7 14.5 0.00 0.00 0.00 66 1013.1
20260505070300 18 360 3.2 16.1 0.00 0.00 0.00 66 1013.1
20260505065831 18 360 3.2 16.1 0.00 0.00 0.00 66 1013.0
20260505065301 18 360 3.2 12.9 0.00 0.00 0.00 66 1013.1
20260505064800 18 360 6.4 14.5 0.00 0.00 0.00 65 1013.1
20260505063800 18 360 6.4 17.7 0.00 0.00 0.00 65 1013.0
20260505063301 18 360 0.0 11.3 0.00 0.00 0.00 65 1013.0
20260505062801 18 360 6.4 12.9 0.00 0.00 0.00 65 1013.1
20260505062301 18 360 3.2 12.9 0.00 0.00 0.00 65 1013.1
20260505061800 18 360 1.6 9.7 0.00 0.00 0.00 65 1013.1
20260505061301 18 360 0.0 9.7 0.00 0.00 0.00 65 1013.2
20260505055800 18 360 3.2 17.7 0.00 0.00 0.00 65 1013.2
20260505055301 18 360 1.6 17.7 0.00 0.00 0.00 64 1013.2
20260505054800 18 360 12.9 17.7 0.00 0.00 0.00 65 1013.2
20260505054301 18 360 4.8 17.7 0.00 0.00 0.00 64 1013.2
20260505053830 18 360 0.0 16.1 0.00 0.00 0.00 65 1013.2
20260505053300 18 360 1.6 16.1 0.00 0.00 0.00 64 1013.2
20260505052300 18 360 6.4 19.3 0.00 0.00 0.00 65 1013.2
20260505051830 18 360 12.9 19.3 0.00 0.00 0.00 64 1013.3
20260505051330 18 360 4.8 22.5 0.00 0.00 0.00 64 1013.3
20260505050800 18 360 3.2 22.5 0.00 0.00 0.00 65 1013.4
20260505050300 18 360 6.4 14.5 0.00 0.00 0.00 65 1013.3
20260505041330 19 360 8.0 16.1 0.00 0.00 0.00 64 1013.1
20260505040300 19 360 9.7 19.3 0.00 0.00 0.00 64 1013.0
20260505035830 19 360 11.3 19.3 0.00 0.00 0.00 64 1013.0
20260505035330 19 360 8.0 22.5 0.00 0.00 0.00 64 1013.1
20260505034830 19 360 11.3 22.5 0.00 0.00 0.00 64 1013.1
20260505034330 19 360 17.7 19.3 0.00 0.00 0.00 64 1013.1
20260505033800 19 360 9.7 24.1 0.00 0.00 0.00 64 1013.0
20260505033330 19 360 11.3 24.1 0.00 0.00 0.00 65 1013.0
20260505032830 20 360 8.0 20.9 0.00 0.00 0.00 65 1013.0
20260505032330 20 360 11.3 20.9 0.00 0.00 0.00 65 1012.9
20260505031830 20 360 11.3 20.9 0.00 0.00 0.00 65 1013.0
20260505031330 20 360 11.3 20.9 0.00 0.00 0.00 65 1013.0
20260505030830 20 360 3.2 19.3 0.00 0.00 0.00 66 1013.0
20260505030330 20 360 9.7 19.3 0.00 0.00 0.00 65 1013.0
20260505025830 20 360 8.0 17.7 0.00 0.00 0.00 67 1012.9
20260505024830 20 360 3.2 19.3 0.00 0.00 0.00 67 1012.9
20260505024330 20 360 8.0 19.3 0.00 0.00 0.00 68 1012.8
20260505023330 20 360 1.6 12.9 0.00 0.00 0.00 68 1012.7
20260505022830 20 360 1.6 12.9 0.00 0.00 0.00 69 1012.7
20260505022330 20 360 8.0 12.9 0.00 0.00 0.00 69 1012.7
20260505021830 20 360 1.6 8.0 0.00 0.00 0.00 69 1012.7
20260505021330 20 360 0.0 8.0 0.00 0.00 0.00 69 1012.7
20260505020830 20 360 0.0 9.7 0.00 0.00 0.00 69 1012.6
20260505015830 20 360 0.0 14.5 0.00 0.00 0.00 69 1012.5
20260505015330 20 360 0.0 6.4 0.00 0.00 0.00 68 1012.3
20260505014830 20 360 0.0 6.4 0.00 0.00 0.00 67 1012.4
20260505014330 20 360 0.0 4.8 0.00 0.00 0.00 67 1012.4
20260505013830 20 360 0.0 6.4 0.00 0.00 0.00 67 1012.4
20260505013330 20 360 1.6 6.4 0.00 0.00 0.00 66 1012.5
20260505012830 20 360 0.0 6.4 0.00 0.00 0.00 65 1012.5
20260505012330 20 360 0.0 11.3 0.00 0.00 0.00 63 1012.3
20260505011830 20 360 0.0 11.3 0.00 0.00 0.00 61 1012.1
20260505010830 21 360 0.0 8.0 0.00 0.00 0.00 60 1012.1
20260505010330 21 360 0.0 1.6 0.00 0.00 0.00 64 1012.0
20260505005830 21 360 0.0 3.2 0.00 0.00 0.00 62 1011.8
20260505005330 21 360 0.0 4.8 0.00 0.00 0.00 60 1011.9
20260505004830 21 360 0.0 4.8 0.00 0.00 0.00 59 1011.8
20260505004300 21 360 0.0 3.2 0.00 0.00 0.00 57 1011.7
20260505003830 22 248 0.0 6.4 0.00 0.00 0.00 56 1011.6
20260505003330 22 250 1.6 6.4 0.00 0.00 0.00 54 1011.6
20260505002830 22 244 0.0 8.0 0.00 0.00 0.00 54 1011.6
20260505002300 22 245 1.6 9.7 0.00 0.00 0.00 52 1011.5
20260505001830 22 227 6.4 11.3 0.00 0.00 0.00 46 1011.3
20260505001330 23 246 0.0 11.3 0.00 0.00 0.00 43 1011.4
20260505000800 23 243 3.2 12.9 0.00 0.00 0.00 43 1011.4
20260504235830 23 244 4.8 12.9 0.00 0.00 0.00 42 1011.3
20260504235330 23 217 1.6 12.9 0.00 0.00 0.00 42 1011.3
20260504234830 23 236 3.2 12.9 0.00 0.00 0.00 41 1011.2
20260504234330 23 198 0.0 11.3 0.00 0.00 0.00 42 1011.1
20260504233830 23 208 0.0 12.9 0.00 0.00 0.00 41 1011.1
20260504233329 23 267 1.6 12.9 0.00 0.00 0.00 40 1011.1
20260504232829 23 221 3.2 14.5 0.00 0.00 0.00 39 1011.0
20260504232330 23 241 3.2 14.5 0.00 0.00 0.00 39 1010.9
20260504231330 24 259 0.0 14.5 0.00 0.00 0.00 40 1010.8
20260504230830 24 242 8.0 14.5 0.00 0.00 0.00 39 1010.8
20260504230329 24 216 1.6 14.5 0.00 0.00 0.00 39 1011.0
20260504225830 24 229 1.6 14.5 0.00 0.00 0.00 38 1011.0
20260504225329 25 236 1.6 14.5 0.00 0.00 0.00 38 1011.0
20260504224830 25 210 4.8 14.5 0.00 0.00 0.00 38 1011.0
20260504224330 25 246 6.4 16.1 0.00 0.00 0.00 38 1011.0
20260504223829 25 228 1.6 16.1 0.00 0.00 0.00 37 1010.9
20260504223330 25 240 9.7 14.5 0.00 0.00 0.00 37 1010.9
20260504222829 25 248 0.0 17.7 0.00 0.00 0.00 38 1010.9
20260504222329 25 264 3.2 19.3 0.00 0.00 0.00 37 1010.9
20260504221329 25 246 1.6 12.9 0.00 0.00 0.00 37 1011.0
20260504220829 25 260 3.2 12.9 0.00 0.00 0.00 38 1011.1
20260504215829 25 219 1.6 17.7 0.00 0.00 0.00 36 1010.9
20260504215329 26 199 9.7 17.7 0.00 0.00 0.00 35 1011.0
20260504214829 26 238 4.8 16.1 0.00 0.00 0.00 35 1011.0
20260504214329 26 225 11.3 24.1 0.00 0.00 0.00 34 1011.1
20260504213830 26 196 8.0 24.1 0.00 0.00 0.00 34 1011.1
20260504212329 26 246 1.6 19.3 0.00 0.00 0.00 34 1011.1
20260504211829 26 252 6.4 19.3 0.00 0.00 0.00 32 1011.1
20260504210829 26 252 8.0 12.9 0.00 0.00 0.00 34 1011.1
20260504210329 26 233 3.2 17.7 0.00 0.00 0.00 35 1011.1
20260504205829 26 261 6.4 29.0 0.00 0.00 0.00 34 1011.1
20260504204829 26 234 8.0 19.3 0.00 0.00 0.00 33 1011.0
20260504204329 26 241 6.4 19.3 0.00 0.00 0.00 35 1011.0
20260504203329 26 240 1.6 17.7 0.00 0.00 0.00 34 1011.1
20260504201829 26 232 0.0 19.3 0.00 0.00 0.00 33 1011.2
20260504201329 26 240 14.5 19.3 0.00 0.00 0.00 35 1011.4
20260504200329 26 203 12.9 19.3 0.00 0.00 0.00 34 1011.3
20260504195829 26 238 3.2 22.5 0.00 0.00 0.00 34 1011.2
20260504195329 26 232 6.4 22.5 0.00 0.00 0.00 34 1011.3
20260504194829 26 247 9.7 16.1 0.00 0.00 0.00 35 1011.4
20260504194329 26 244 0.0 17.7 0.00 0.00 0.00 35 1011.5
20260504193329 26 217 12.9 16.1 0.00 0.00 0.00 34 1011.8
20260504192829 26 209 4.8 12.9 0.00 0.00 0.00 33 1011.8
20260504191329 26 256 0.0 14.5 0.00 0.00 0.00 37 1011.9
20260504190829 26 248 0.0 11.3 0.00 0.00 0.00 36 1012.2
20260504185829 26 259 8.0 11.3 0.00 0.00 0.00 36 1012.2
20260504184829 25 231 6.4 9.7 0.00 0.00 0.00 38 1012.4
20260504184329 25 269 1.6 9.7 0.00 0.00 0.00 38 1012.5
20260504183829 25 236 6.4 14.5 0.00 0.00 0.00 38 1012.6
20260504182829 24 288 4.8 11.3 0.00 0.00 0.00 40 1012.8
20260504182329 24 234 0.0 20.9 0.00 0.00 0.00 40 1012.8
20260504181829 24 278 0.0 20.9 0.00 0.00 0.00 38 1012.9
20260504181329 24 257 0.0 19.3 0.00 0.00 0.00 38 1012.8
20260504180829 24 215 6.4 24.1 0.00 0.00 0.00 38 1012.9
20260504180329 24 223 6.4 24.1 0.00 0.00 0.00 36 1012.9
20260504175829 25 242 3.2 20.9 0.00 0.00 0.00 37 1013.0
20260504175329 25 223 9.7 20.9 0.00 0.00 0.00 37 1012.9
20260504173829 25 219 12.9 14.5 0.00 0.00 0.00 38 1013.1
20260504173329 25 223 6.4 16.1 0.00 0.00 0.00 38 1013.1
20260504172829 25 262 0.0 16.1 0.00 0.00 0.00 38 1013.2
20260504172329 25 258 0.0 14.5 0.00 0.00 0.00 38 1013.2
20260504171829 25 267 0.0 14.5 0.00 0.00 0.00 38 1013.3
20260504171329 25 207 0.0 14.5 0.00 0.00 0.00 40 1013.5
20260504170829 25 255 6.4 14.5 0.00 0.00 0.00 40 1013.4
20260504170329 25 236 3.2 14.5 0.00 0.00 0.00 39 1013.5
20260504160329 23 248 6.4 16.1 0.00 0.00 0.00 44 1014.3
20260504150329 21 280 6.4 14.5 0.00 0.00 0.00 48 1014.7
20260504141328 18 222 1.6 16.1 0.00 0.00 0.00 54 1015.0
20260504140829 18 239 4.8 14.5 0.00 0.00 0.00 56 1015.0
20260504130328 16 360 3.2 14.5 0.00 0.00 0.00 66 1015.3